This demonstration page uses our WeatherBlox Daily Observations layout. Learn more.

Left ArrowRight Arrow

39.12711, -84.51439

Hourly Observations for May 7, 2021

Temp ( °F °C ) Dew Point ( °F °C ) Humidity (%) Winds ( mph kmh ) Pressure ( in mb ) Visibility ( mi km ) Precip ( " mm )
12:53 am 00:53 Partly Cloudy 49 9.4 46 7.8 90 90 W 7 11 30.00 1016 10 16 0.00 0.00
1:53 am 01:53 Cloudy 50 10 47 8.3 89 89 W 8 13 29.99 1016 10 16 N/A
2:31 am 02:31 Cloudy with Light Rain 50 10 47 8.3 89 89 NW 7 11 30.00 1016 8 13 0.00 0.00
2:53 am 02:53 Cloudy 50 10 47 8.3 89 89 WNW 7 11 29.98 1015 10 16 0.00 0.00
3:15 am 03:15 Cloudy 50 10 47 8.3 89 89 WNW 9 15 29.99 1015 10 16 N/A
3:35 am 03:35 Cloudy 50 10 46 7.8 86 86 NW 7 11 29.99 1015 10 16 N/A
3:53 am 03:53 Cloudy 49 9.4 46 7.8 90 90 NW 10 17 29.98 1015 10 16 N/A
4:36 am 04:36 Partly Cloudy 47 8.3 44 6.7 90 90 NNW 7 11 30.00 1016 10 16 N/A
4:50 am 04:50 Mostly Cloudy 46 8 45 7 93 93 NW 8 13 30.01 1016 10 16 N/A
4:53 am 04:53 Mostly Cloudy 47 8.3 44 6.7 90 90 NW 8 13 29.99 1016 10 16 N/A
5:08 am 05:08 Partly Cloudy 46 7.8 43 6.1 89 89 NNW 10 17 30.01 1016 10 16 N/A
5:53 am 05:53 Clear 45 7.2 41 5 86 86 NW 8 13 30.01 1016 10 16 N/A
6:53 am 06:53 Partly Cloudy 44 6.7 41 5 89 89 WNW 6 9 30.03 1017 9 14 N/A
7:53 am 07:53 Partly Cloudy 45 7.2 41 5 86 86 WNW 5 7 30.05 1018 10 16 N/A
8:53 am 08:53 Partly Cloudy 47 8.3 41 5 80 80 NW 9 15 30.07 1018 10 16 N/A
9:53 am 09:53 Mostly Sunny 50 10 42 5.6 74 74 W 6 9 30.07 1018 10 16 N/A
10:53 am 10:53 Partly Cloudy 54 12.2 40 4.4 59 59 W 8 13 30.07 1018 10 16 N/A
11:53 am 11:53 Mostly Sunny 57 13.9 41 5 55 55 undefined N/A 30.06 1018 10 16 N/A
12:53 pm 12:53 Partly Cloudy 59 15 39 3.9 48 48 VRB 7 11 30.06 1018 10 16 N/A
1:53 pm 13:53 Mostly Cloudy 59 15 41 5 51 51 VRB 5 7 30.03 1017 10 16 N/A
2:53 pm 14:53 Partly Cloudy 62 16.7 39 3.9 43 43 W 10 17 30.00 1016 10 16 N/A
3:53 pm 15:53 Mostly Cloudy 60 15.6 38 3.3 44 44 W 9 15 29.98 1015 10 16 N/A
4:53 pm 16:53 Mostly Cloudy 63 17 39 4 42 42 SW 13 20 29.95 1014 10 16 N/A
4:56 pm 16:56 Mostly Cloudy 64 17.8 39 3.9 40 40 SW 14 22 29.94 1014 10 16 0.00 0.00
5:53 pm 17:53 Partly Cloudy 60 15.6 42 5.6 52 52 SSW 13 20 29.95 1014 10 16 0.00 0.00
6:53 pm 18:53 Cloudy with Light Rain 57 13.9 43 6.1 60 60 SSW 10 17 29.96 1014 8 13 0.00 0.00
7:53 pm 19:53 Cloudy with Light Rain 51 10.6 48 8.9 89 89 S 8 13 29.95 1014 9 14 0.07 1.78
8:53 pm 20:53 Cloudy with Light Rain 51 10.6 48 8.9 89 89 SW 6 9 29.95 1014 8 13 0.00 0.00
9:48 pm 21:48 Mostly Cloudy with Thunderstorms 50 10 46 8 88 88 SW 8 13 29.96 1014 10 16 0.09 2.29
9:53 pm 21:53 Cloudy 50 10 47 8.3 89 89 NNW 5 7 29.96 1014 10 16 0.09 2.29
10:53 pm 22:53 Cloudy 51 10.6 48 8.9 89 89 NNW 6 9 30.00 1016 10 16 N/A
11:53 pm 23:53 Cloudy 50 10 46 7.8 86 86 NNW 9 15 30.00 1016 10 16 N/A

Powered by AerisWeather